www.pogodaiklimat.ru

Погода и климат >> Архив погоды >> Россия >> Чукотка >> Эгвекинот


АРХИВ ПОГОДЫ в Эгвекиноте

Время (UTC), дата Ветер
(напр.,м/с)
 
Видим.   Явления Облачность Т
(С)
Тd
(С)
f
(%)
Тe
(С)
Тes
(С)
Комфортность P
(гПа)
Po
(гПа)
Тmin
(С)
Tmax
(С)
R
(мм)
R24
(мм)
S
(см)
09 11.02 С 7-10
{12}
20 км позёмок 6/3 600 м
[Cb cap Ci fib]
-17.5 -23.1 62 -28 -28 1014.2 1011.2
12 11.02 С 8-12
{12}
20 км позёмок 10/3 1000 м
[Cb cap Ac trans Ci sp]
-18.1 -23.3 64 -30 -30 1011.5 1008.4
15 11.02 С 11-16
{16}
4000 м метель 10/3 1000 м
[Cb cap Ac trans Ci sp]
-18.9 -23.5 67 -33 -33 опасность
обморожения
1006.0 1003.0
18 11.02 С 13-19
{19}
200 м сильная метель ?/? -18.0 -22.1 70 -32 -32 опасность
обморожения
999.6 996.6 -19.1 0.0 50
21 11.02 СЗ 13-23
{24}
50 м сильная метель ?/? -18.3 -21.3 77 -33 -33 опасность
обморожения
993.3 990.3 -19.1
00 12.02 С 18-28
{32}
50 м сильная метель ?/? -19.8 -22.8 77 -37 -37 опасность
обморожения
989.7 986.7
03 12.02 С 17-26
{33}
50 м сильная метель ?/? -19.5 -22.8 75 -36 -36 опасность
обморожения
990.4 987.4
06 12.02 СЗ 16-22
{28}
200 м сильная метель 6/0
[Ac trans Ci sp]
-18.6 -22.4 72 -34 -34 опасность
обморожения
994.3 991.3 -17.9 5
09 12.02 С 15-23
{28}
500 м сильная метель 10/0
[Ac trans Cs]
-16.4 -23.1 56 -31 -31 опасность
обморожения
999.0 996.0
12 12.02 С 4
{23}
10 км {метель} 10/4 600 м
[Sc Ac trans Cs]
-16.1 -22.7 57 -24 -24 1004.6 1001.6
15 12.02 С 4
{8}
4000 м слаб. снег 10/4 600 м
[Sc As op]
-17.5 -23.2 61 -26 -26 1008.8 1005.7
18 12.02 С 5
{8}
4000 м слаб. снег 10/5 1000 м
[Sc As op]
-18.4 -23.5 64 -28 -28 1011.8 1008.7 -18.6 1 42
21 12.02 С 5
{9}
4000 м слаб. снег 10/3 1000 м
[Sc As op]
-19.4 -25.0 61 -29 -29 1014.7 1011.6 -19.4
00 13.02 С 5
{10}
20 км {снег} 10/4 1080 м
[Sc Ac trans Ci sp]
-19.4 -25.2 60 -29 -29 1015.8 1012.7
03 13.02 С 3
{8}
4000 м слаб. снег 10/0
[Ac trans Cs]
-19.9 -25.3 62 -27 -27 1017.0 1013.9
06 13.02 С 2
{6}
4000 м слаб. снег 10/0
[Ac trans Cs]
-20.7 -25.5 65 -27 -27 1017.9 1014.8 -18.4 0.4
09 13.02 С 4
{7}
20 км {снег} 10/0
[Cs]
-21.4 -26.7 62 -31 -31 опасность
обморожения
1020.0 1016.9
12 13.02 штиль 0
{7}
20 км {снег} 10/0
[Cs]
-23.9 -28.3 67 -24 -24 1021.7 1018.5
15 13.02 Ю 1
{4}
20 км 5/0
[Ci fib]
-25.2 -29.9 65 -29 -29 1023.7 1020.5
18 13.02 Ю 2
{5}
20 км 5/0
[Ci fib]
-26.3 -30.9 65 -33 -33 опасность
обморожения
1025.3 1022.1 -26.7 0.0 42
21 13.02 Ю 1
{5}
20 км ясно -27.3 -32.0 64 -31 -31 опасность
обморожения
1027.4 1024.2 -28.2
00 14.02 Ю 2
{6}
20 км ясно -24.7 -31.0 56 -31 -31 опасность
обморожения
1026.9 1023.7
03 14.02 Ю 3
{7}
20 км 8/0
[Ci fib]
-27.1 -32.0 63 -36 -36 опасность
обморожения
1026.0 1022.8
06 14.02 С 2
{6}
20 км 6/0
[Ci fib]
-27.2 -31.8 65 -34 -34 опасность
обморожения
1025.1 1021.9 -24.5
09 14.02 В 1
{9}
20 км 3/0
[Ci fib]
-24.5 -29.9 61 -28 -28 1021.9 1018.7
12 14.02 С 6
{9}
20 км 8/0
[Ac trans Ci sp]
-20.2 -25.6 62 -31 -31 опасность
обморожения
1018.7 1015.6
15 14.02 С 7-12
{13}
20 км позёмок 10/0
[Ac trans Cs]
-16.3 -22.3 60 -27 -27 1014.0 1011.0
18 14.02 С 9-14
{14}
4000 м слаб. снег {метель} 10/0
[As op]
-16.5 -21.0 68 -28 -28 1009.5 1006.5 -28.0 0.0 42
21 14.02 С 11-16
{17}
500 м сильн. снег {метель} 10/0
[As op]
-13.3 -17.1 73 -25 -25 1006.8 1003.8 -28.0
00 15.02 С 11-15
{18}
500 м снег {метель} 10/0
[As op]
-13.0 -16.5 75 -25 -25 1005.2 1002.2
03 15.02 С 8-12
{17}
2000 м слаб. ливневой снег 10/6 1000 м
[Cb cap As op]
-11.4 -15.7 70 -21 -21 1003.0 1000.1
06 15.02 С 9-12
{14}
1000 м ливневой снег 10/6 1000 м
[Cb cap As op]
-10.6 -14.0 76 -21 -21 1003.0 1000.1 -10.6 2
09 15.02 С 8-11
{13}
2000 м слаб. ливневой снег {метель} 10/6 1000 м
[Cb cap As op]
-8.4 -12.4 73 -18 -18 1002.6 999.7
12 15.02 С 7-10
{11}
2000 м слаб. ливневой снег {метель} 10/6 1000 м
[Cb cap As op]
-6.6 -10.2 76 -15 -15 1002.4 999.5
15 15.02 С 8-11
{11}
2000 м слаб. ливневой снег {метель} 10/6 1000 м
[Cb cap As op]
-5.5 -8.9 77 -14 -14 1001.2 998.3
18 15.02 С 5
{12}
1000 м ливневой снег {метель} 10/6 1000 м
[Cb cap As op]
-3.7 -7.7 74 -10 -10 1000.2 997.3 -10.7 4 46
21 15.02 С 7-10
{11}
10 км позёмок {ливн. осадки} 10/8 930 м
[Cb cap As op]
-4.1 -7.9 75 -12 -12 999.2 996.3 -10.7
00 16.02 СВ 10-14
{14}
4000 м слаб. ливневой снег {метель} 10/8 600 м
[Cb cap As op]
-2.9 -6.9 74 -12 -12 995.1 992.3
03 16.02 В 9-15
{16}
500 м ливневой снег {метель} 10/8 600 м
[Cb cap As op]
-3.5 -5.5 86 -12 -12 989.9 987.1
06 16.02 В 13-17
{19}
500 м ливневой снег {метель} 10/8 600 м
[Sc As op]
-5.1 -7.0 86 -16 -16 986.6 983.8 -2.8 4
09 16.02 СЗ 10-15
{18}
500 м ливневой снег {метель} 10/8 600 м
[Cb cap As op]
-4.3 -6.8 83 -14 -14 985.1 982.3
12 16.02 ЮВ 10-15
{17}
2000 м слаб. ливневой снег {метель} 10/8 600 м
[Cb cap As op]
-0.7 -3.5 81 -9 -9 985.9 983.1
15 16.02 ЮВ 12-16
{17}
2000 м слаб. ливневой снег {метель} 10/8 600 м
[Cb cap As op]
-1.2 -3.2 86 -10 -10 986.5 983.7
18 16.02 ЮВ 10-15
{19}
2000 м слаб. ливневой снег {метель} 10/8 600 м
[Cb cap As op]
-1.1 -2.8 88 -10 -10 986.0 983.2 -5.2 3 49
21 16.02 ЮВ 12-18
{18}
4000 м метель {ливн. осадки} 10/8 800 м
[Cb cap As op]
-0.5 -2.7 85 -9 -9 987.1 984.3 -5.2
00 17.02 Ю 14-17
{20}
500 м слаб. ливневой снег {метель} 10/8 600 м
[Cb cap As op]
-1.5 -2.2 95 -12 -12 989.0 986.2
03 17.02 Ю 10-15
{18}
1000 м слаб. ливневой снег {метель} 10/8 600 м
[Cb cap As op]
-1.9 -2.5 96 -11 -11 990.4 987.6
06 17.02 Ю 10-15
{19}
4000 м слаб. ливневой снег {метель} 10/8 600 м
[Cb cap As op]
-2.9 -3.9 93 -12 -12 994.1 991.3 -0.5 12
09 17.02 Ю 9-12
{17}
10 км позёмок {ливн. осадки} 10/8 570 м
[Cb cap As op]
-3.9 -5.4 89 -13 -13 997.0 994.2
12 17.02 Ю 4
{12}
10 км {ливн. осадки, метель} 10/8 300 м
[Cb cap Ac und]
-5.6 -7.4 87 -12 -12 999.2 996.3
15 17.02 штиль 0
{6}
10 км 10/4 1000 м
[Cb cap Ac und]
-6.2 -8.3 85 -7 -7 999.8 996.9
18 17.02 С 3
{4}
4000 м слаб. ливневой снег 10/5 600 м
[Cb cap Ac und]
-3.7 -6.4 82 -9 -9 998.5 995.6 -7.6 0.0 64
21 17.02 Ю 9-13
{13}
1000 м слаб. ливневой снег {метель} 10/8 600 м
[Cb cap Ac und]
-5.3 -6.7 90 -15 -15 999.3 996.4 -7.6
00 18.02 Ю 6
{13}
10 км позёмок {ливн. осадки} 10/10 330 м
[Cb cap]
-6.5 -8.3 87 -15 -15 1000.6 997.7
03 18.02 ЮВ 1
{7}
10 км {метель} 10/10 240 м
[Cb cap]
-6.9 -8.8 86 -9 -9 1000.5 997.6
06 18.02 С 1
{3}
10 км {метель} 10/8 270 м
[Cb cap Ci sp]
-9.6 -11.3 87 -12 -12 1001.5 998.6 -3.5 1

 

Местоположение метеостанции Эгвекинот (Чукотка, Россия): широта 66.35 долгота -179.00 высота над уровнем моря 22 м.

В архиве по умолчанию представлена погода в Эгвекиноте за последнюю неделю. Архивные данные за месяц целиком и за предыдущие месяцы, начиная с января 2011 года, Вы можете получить, выбрав интересующий диапазон дат из раскрывающегося списка и нажав кнопку "Ввод!".


*Определитесь, кто Вы:
робот инопланетянин человек

Внимание! Время в таблицах - всемирное. Для получения местного времени необходимо прибавить поправку, которая равна 12 ч.

Смотрите также архив погоды в соседних городах и на ближайших метеорологических станциях:

Погода на Мысе Ванкарем (Чукотка, Россия) (239 км)
Погода на Мысе Шмидта (Чукотка, Россия) (280 км)
Погода в Уэлене (Чукотка, Россия) (448 км)
Погода на Острове Врангеля (Чукотка, Россия) (517 км)

Пояснения к столбцам:

Ветер - указаны скорость ветра в м/с - средняя за 10 мин, порывы в срок и между сроками (в фигурных скобках) и направление, откуда дует ветер: С - северный, СВ - северо-восточный, В - восточный, ЮВ - юго-восточный, Ю - южный, ЮЗ - юго-западный, З - западный, СЗ - северо-западный.
Видимость - горизонтальная дальность видимости в метрах или километрах. При видимости от 1 до 10 км при отсутствии осадков обычно наблюдается дымка, при ухудшении видимости до 1 км и менее - туман. В сухую погоду видимость может ухудшаться дымом, пылью или мглою.
Явления - указаны атмосферные явления, наблюдавшиеся в срок или в последний час перед сроком; фигурными скобками обозначены явления, наблюдавшиеся между сроками (за 1-3 часа до срока); квадратными скобками обозначены град или гололедные отложения с указанием их диаметра в мм.
Облачность - указаны через наклонную черту общая и нижняя облачность в баллах и высота нижней границы облаков в метрах; квадратными скобками обозначены формы облаков: Ci - перистые, Cs - перисто-слоистые, Cc - перисто-кучевые, Ac - высококучевые, As - высокослоистые, Sc - слоисто-кучевые, Ns - слоисто-дождевые, Cu - кучевые, Cb - кучево-дождевые. Подробнее классификацию облаков см. в Атласе облаков (PDF).
T - Температура воздуха - температура, измеренная на высоте 2 м над землей.
Td - Температура точки росы - температура, при понижении до которой содержащийся в воздухе водяной пар достигнет насыщения.
f - Относительная влажность воздуха - влажноcть воздуха, измеренная на высоте 2 м над землей.
Te - Эффективная температура - температура, которую ощущает одетый по сезону человек в тени. Характеристика душности погоды. При расчете учитывается влияние влажности воздуха и скорости ветра на теплоощущения человека.
Tes - Эффективная температура на солнце - температура, которую ощущает человек, с поправкой на солнечный нагрев. Характеристика знойности погоды. Зависит от высоты солнца над горизонтом, облачности и скорости ветра. Ночью, в пасмурную погоду, а также при ветре 12 м/с и более поправка равна нулю.
P - Атмосферное давление - приведенное к уровню моря атмосферное давление.
Po - Атмосферное давление - измеренное на уровне метеостанции атмосферное давление.
Tmin - Минимальная температура - минимум температуры воздуха на высоте 2 м над землей.
Tmax - Максимальная температура - максимум температуры воздуха на высоте 2 м над землей.
R - Количество осадков - Количество выпавших осадков за период времени, мм. При наведении курсора мыши на число - период времени, за который выпало указанное количество осадков.
R24 - Количество осадков - Количество выпавших осадков за 24 часа, мм.
S - Снежный покров - Высота снежного покрова, см. При наведении курсора мыши на число - состояние снежного покрова и степень покрытия местности в баллах.